This is the latest recevied weather packets stored in our database for station/object KB4RFE. If no packets are shown the sender has not sent any weather packets the latest 10 day(s).
| Time | Temp. | Humidity | Pressure | Rain* | Wind** | Luminosity | Snow |
|---|---|---|---|---|---|---|---|
| 1777896908 | 14.44° C | 98% | 1021 hPa | 0.51 mm | - | 50 W/m² | - |
| 1777896606 | 13.89° C | 98% | 1020.8 hPa | 0.51 mm | - | 48 W/m² | - |
| 1777896302 | 13.33° C | 98% | 1020.8 hPa | 0 mm | - | 47 W/m² | - |
| 1777896001 | 13.33° C | 98% | 1020.8 hPa | 0 mm | - | 49 W/m² | - |
| 1777895698 | 12.78° C | 98% | 1021 hPa | 0 mm | - | 45 W/m² | - |
| 1777895395 | 12.78° C | 98% | 1020.8 hPa | 0 mm | - | 43 W/m² | - |
| 1777895093 | 12.22° C | 98% | 1020.9 hPa | 0 mm | - | 40 W/m² | - |
| 1777894789 | 11.67° C | 98% | 1020.8 hPa | 0 mm | - | 39 W/m² | - |
| 1777894486 | 11.67° C | 98% | 1020.7 hPa | 0 mm | - | 39 W/m² | - |
| 1777894184 | 11.67° C | 97% | 1020.7 hPa | 0 mm | - | 35 W/m² | - |
| 1777893881 | 11.11° C | 97% | 1020.7 hPa | 0 mm | - | 33 W/m² | - |
| 1777893577 | 11.11° C | 97% | 1020.8 hPa | 0 mm | - | 30 W/m² | - |
| 1777893274 | 11.11° C | 97% | 1020.8 hPa | 0 mm | - | 28 W/m² | - |
| 1777892970 | 11.11° C | 97% | 1020.6 hPa | 0 mm | - | 26 W/m² | - |
| 1777892667 | 11.11° C | 97% | 1020.5 hPa | 0 mm | - | 23 W/m² | - |
| 1777892363 | 11.11° C | 97% | 1020.7 hPa | 0 mm | - | 20 W/m² | - |
| 1777892059 | 10.56° C | 97% | 1020.7 hPa | 0 mm | - | 17 W/m² | - |
| 1777891757 | 10.56° C | 97% | 1020.7 hPa | 0 mm | - | 14 W/m² | - |
| 1777891453 | 10.56° C | 97% | 1020.7 hPa | 0 mm | - | 10 W/m² | - |
| 1777891149 | 10.56° C | 97% | 1020.6 hPa | 0 mm | - | 7 W/m² | - |
| 1777890844 | 10.56° C | 97% | 1020.4 hPa | 0 mm | - | 5 W/m² | - |
| 1777890539 | 10.56° C | 97% | 1020.6 hPa | 0 mm | - | 3 W/m² | - |
| 1777890235 | 10.56° C | 96% | 1020.4 hPa | 0 mm | - | 1 W/m² | - |
| 1777889931 | 10.56° C | 96% | 1020.3 hPa | 0 mm | - | 1 W/m² | - |
| 1777889630 | 10.56° C | 96% | 1020.4 hPa | 0 mm | - | 0 W/m² | - |
* Rain latest hour (hover to see other rain measurements)
** Current wind speed in m/s (hover to see current wind gust speed)